Location: Habighorst
(52.7089°N, 10.2278°E)
Time: 07:09:36
(UTC+00:00)

Lacrosse 5 rocket - Pass Details

Date: 13 January 2026
Orbit: 400 x 481 km, 57.0° (Epoch: 18 February)

Event Time Altitude Azimuth Distance (km) Brightness Sun altitude
Exits shadow 05:26:01 37° 312° (NW) 771 1.6 -17.2°
Maximum altitude 05:26:54 45° 351° (N) 677 1.6 -17.0°
Drops below altitude 10° 05:30:34 10° 66° (ENE) 1,686 4.6 -16.5°
Sets 05:32:49 0° 72° (ENE) 2,567 5.8 -16.2°
